Precipitable_Water
0.18 0.13 0.08 0.12 0.18 0.19 0.17 0.15 0.13 0.15 0.19 0.13 0.18 0.25 0.30 0.35 0.36 0.35 0.38 0.38 0.40 0.42 0.48 0.48 0.49 0.57 0.67 0.71 0.72 0.80 1.13 1.46 1.21 1.28 1.34 1.38 1.47 1.27 1.21 1.23 1.19 1.22 1.23 1.22
0.13 0.10 0.13 0.17 0.17 0.16 0.17 0.15 0.15 0.16 0.16 0.19 0.24 0.26 0.33 0.37 0.37 0.38 0.39 0.41 0.42 0.45 0.46 0.45 0.49 0.53 0.60 0.72 0.76 0.79 0.95 1.35 1.60 1.34 1.40 1.41 1.44 1.55 1.30 1.26 1.28 1.25 1.26 1.22
0.14 0.15 0.17 0.19 0.15 0.13 0.17 0.15 0.12 0.13 0.18 0.22 0.22 0.22 0.27 0.33 0.35 0.39 0.41 0.45 0.48 0.48 0.51 0.48 0.49 0.52 0.59 0.67 0.77 0.82 0.88 1.08 1.51 1.73 1.67 1.52 1.52 1.60 1.53 1.30 1.28 1.32 1.29 1.25
0.15 0.17 0.17 0.18 0.13 0.16 0.16 0.21 0.18 0.20 0.18 0.13 0.21 0.15 0.25 0.29 0.31 0.34 0.37 0.42 0.45 0.52 0.54 0.57 0.55 0.54 0.60 0.64 0.79 0.88 0.90 0.93 1.14 1.48 1.66 1.44 1.40 1.37 1.57 1.44 1.36 1.35 1.39 1.33
0.12 0.13 0.14 0.13 0.12 0.15 0.14 0.17 0.20 0.21 0.21 0.21 0.23 0.19 0.22 0.28 0.24 0.31 0.38 0.43 0.47 0.50 0.54 0.56 0.58 0.57 0.58 0.65 0.70 0.84 0.92 0.93 1.02 1.25 1.52 1.60 1.53 1.50 1.60 1.69 1.53 1.55 1.50 1.43
0.15 0.16 0.12 0.14 0.17 0.17 0.17 0.15 0.21 0.22 0.23 0.19 0.23 0.20 0.20 0.24 0.28 0.33 0.40 0.48 0.51 0.52 0.54 0.58 0.61 0.62 0.57 0.59 0.63 0.74 0.84 0.88 0.97 1.12 1.33 1.47 1.51 1.51 1.46 1.70 1.77 1.75 1.72 1.66
0.13 0.14 0.15 0.15 0.15 0.19 0.14 0.13 0.11 0.14 0.18 0.18 0.27 0.23 0.25 0.31 0.35 0.38 0.42 0.48 0.53 0.56 0.55 0.56 0.59 0.59 0.61 0.56 0.59 0.67 0.71 0.78 0.86 1.00 1.17 1.32 1.47 1.46 1.42 1.42 1.59 1.77 1.76 1.81
0.12 0.10 0.15 0.14 0.12 0.11 0.14 0.12 0.10 0.09 0.14 0.17 0.27 0.21 0.26 0.38 0.41 0.42 0.46 0.52 0.54 0.54 0.57 0.57 0.60 0.64 0.66 0.64 0.59 0.63 0.68 0.70 0.75 0.84 0.99 1.14 1.27 1.31 1.31 1.39 1.40 1.58 1.64 1.71
0.11 0.13 0.18 0.12 0.13 0.13 0.13 0.12 0.15 0.14 0.18 0.17 0.24 0.29 0.37 0.43 0.40 0.39 0.41 0.45 0.47 0.50 0.52 0.57 0.58 0.59 0.64 0.68 0.65 0.59 0.63 0.67 0.69 0.72 0.80 0.95 1.03 1.17 1.26 1.24 1.28 1.35 1.46 1.60
0.16 0.11 0.15 0.12 0.17 0.16 0.13 0.16 0.14 0.18 0.09 0.10 0.20 0.21 0.22 0.31 0.31 0.34 0.37 0.40 0.43 0.51 0.50 0.53 0.57 0.61 0.65 0.66 0.68 0.70 0.65 0.66 0.69 0.67 0.70 0.74 0.86 0.92 1.03 1.17 1.19 1.26 1.35 1.40
0.16 0.16 0.14 0.13 0.14 0.12 0.15 0.14 0.13 0.15 0.17 0.10 0.11 0.17 0.29 0.29 0.30 0.30 0.33 0.36 0.37 0.43 0.45 0.46 0.50 0.57 0.60 0.59 0.61 0.61 0.64 0.62 0.61 0.65 0.65 0.69 0.73 0.77 0.80 0.87 1.00 1.05 1.16 1.22
0.16 0.18 0.12 0.15 0.17 0.14 0.14 0.13 0.15 0.09 0.13 0.16 0.12 0.16 0.33 0.27 0.28 0.29 0.28 0.32 0.33 0.38 0.40 0.44 0.46 0.49 0.50 0.48 0.49 0.50 0.51 0.55 0.53 0.60 0.63 0.63 0.67 0.73 0.70 0.72 0.77 0.86 0.90 0.99
0.16 0.16 0.12 0.11 0.14 0.15 0.12 0.15 0.16 0.13 0.16 0.15 0.10 0.16 0.28 0.24 0.26 0.27 0.26 0.26 0.28 0.30 0.33 0.38 0.43 0.43 0.45 0.44 0.42 0.44 0.42 0.42 0.46 0.50 0.51 0.58 0.63 0.65 0.68 0.69 0.74 0.73 0.75 0.74
0.17 0.17 0.15 0.12 0.15 0.20 0.12 0.14 0.16 0.16 0.12 0.17 0.17 0.20 0.23 0.23 0.22 0.22 0.23 0.24 0.26 0.28 0.28 0.29 0.32 0.36 0.37 0.35 0.35 0.35 0.34 0.35 0.36 0.43 0.45 0.48 0.49 0.53 0.62 0.65 0.67 0.68 0.70 0.67
0.19 0.12 0.16 0.19 0.16 0.14 0.13 0.12 0.14 0.14 0.14 0.13 0.18 0.19 0.22 0.23 0.23 0.22 0.23 0.23 0.23 0.23 0.25 0.26 0.26 0.26 0.27 0.27 0.29 0.31 0.32 0.32 0.36 0.37 0.41 0.42 0.44 0.46 0.47 0.48 0.59 0.65 0.65 0.69
0.20 0.14 0.16 0.13 0.15 0.14 0.10 0.11 0.12 0.13 0.15 0.17 0.18 0.17 0.23 0.25 0.24 0.21 0.21 0.23 0.21 0.20 0.20 0.20 0.22 0.23 0.23 0.25 0.29 0.32 0.32 0.32 0.35 0.35 0.34 0.37 0.37 0.39 0.42 0.47 0.45 0.46 0.49 0.56
0.16 0.16 0.14 0.10 0.14 0.13 0.10 0.11 0.11 0.12 0.15 0.16 0.14 0.19 0.24 0.22 0.22 0.21 0.22 0.25 0.24 0.22 0.19 0.19 0.22 0.23 0.25 0.28 0.31 0.32 0.34 0.35 0.34 0.33 0.34 0.33 0.31 0.31 0.34 0.37 0.38 0.39 0.42 0.44
0.19 0.17 0.16 0.14 0.14 0.07 0.10 0.20 0.17 0.13 0.16 0.19 0.22 0.23 0.22 0.22 0.24 0.24 0.27 0.28 0.26 0.19 0.20 0.22 0.23 0.26 0.29 0.32 0.33 0.32 0.34 0.34 0.34 0.32 0.29 0.29 0.30 0.32 0.34 0.35 0.36 0.37 0.38 0.39
0.26 0.21 0.15 0.11 0.11 0.11 0.15 0.18 0.16 0.13 0.14 0.21 0.20 0.21 0.21 0.21 0.24 0.25 0.28 0.31 0.26 0.21 0.23 0.23 0.24 0.28 0.29 0.30 0.29 0.31 0.31 0.31 0.31 0.31 0.32 0.34 0.34 0.33 0.35 0.34 0.35 0.37 0.36 0.35
0.28 0.26 0.18 0.16 0.11 0.08 0.16 0.19 0.21 0.20 0.13 0.23 0.23 0.21 0.21 0.21 0.15 0.22 0.29 0.30 0.23 0.22 0.23 0.23 0.24 0.28 0.28 0.28 0.29 0.28 0.28 0.30 0.30 0.33 0.34 0.37 0.38 0.38 0.36 0.36 0.36 0.36 0.36 0.35
0.19 0.21 0.17 0.17 0.12 0.13 0.21 0.20 0.22 0.12 0.12 0.20 0.22 0.23 0.22 0.20 0.22 0.28 0.29 0.26 0.21 0.23 0.24 0.25 0.26 0.27 0.29 0.31 0.30 0.27 0.26 0.26 0.30 0.32 0.34 0.36 0.39 0.39 0.41 0.40 0.38 0.36 0.33 0.33
0.16 0.16 0.17 0.20 0.16 0.10 0.21 0.20 0.15 0.18 0.23 0.23 0.24 0.25 0.24 0.26 0.27 0.27 0.26 0.21 0.21 0.22 0.24 0.26 0.25 0.27 0.32 0.32 0.30 0.27 0.26 0.28 0.29 0.30 0.31 0.32 0.35 0.35 0.37 0.39 0.38 0.37 0.36 0.33
0.16 0.18 0.17 0.18 0.17 0.24 0.27 0.22 0.27 0.27 0.24 0.25 0.25 0.26 0.26 0.26 0.26 0.25 0.22 0.21 0.22 0.23 0.24 0.26 0.26 0.27 0.29 0.31 0.30 0.26 0.26 0.29 0.29 0.28 0.29 0.30 0.31 0.33 0.33 0.32 0.34 0.35 0.36 0.34
0.23 0.26 0.22 0.21 0.21 0.23 0.26 0.27 0.28 0.29 0.27 0.27 0.28 0.27 0.26 0.26 0.27 0.24 0.24 0.22 0.22 0.23 0.24 0.27 0.26 0.25 0.25 0.27 0.27 0.26 0.28 0.30 0.29 0.27 0.26 0.28 0.28 0.29 0.31 0.32 0.34 0.35 0.35 0.34
0.23 0.25 0.22 0.23 0.25 0.26 0.28 0.27 0.28 0.29 0.30 0.29 0.29 0.28 0.29 0.30 0.27 0.27 0.25 0.23 0.23 0.24 0.26 0.26 0.25 0.25 0.24 0.24 0.24 0.25 0.27 0.28 0.27 0.26 0.26 0.26 0.27 0.28 0.29 0.30 0.32 0.33 0.37 0.37
0.28 0.23 0.20 0.18 0.26 0.25 0.27 0.30 0.31 0.29 0.28 0.28 0.28 0.29 0.33 0.32 0.29 0.28 0.26 0.25 0.24 0.25 0.26 0.26 0.27 0.26 0.26 0.25 0.24 0.25 0.27 0.28 0.26 0.24 0.24 0.25 0.26 0.28 0.29 0.29 0.29 0.33 0.35 0.38
Wind_Speed
4 6 3 2 1 3 5 6 6 6 8 9 10 8 12 14 15 18 21 23 24 24 26 26 26 27 28 28 27 26 28 39 42 40 39 38 40 40 38 36 36 34 34 32
3 4 1 2 0 3 7 4 5 8 10 10 5 8 11 14 15 18 22 24 26 26 26 27 27 27 28 27 28 27 27 33 44 43 42 40 40 41 42 41 39 39 37 36
4 3 3 2 1 4 2 3 4 7 10 10 6 10 12 14 17 17 19 21 23 24 25 26 26 26 28 27 27 28 28 29 35 45 43 41 40 40 42 45 43 42 41 40
3 3 2 2 1 2 4 3 6 8 7 7 9 11 12 15 17 18 19 20 21 22 22 24 26 26 26 26 27 27 28 28 30 39 43 43 43 42 42 44 45 45 44 44
2 1 1 1 3 3 5 6 7 8 9 9 12 9 11 13 17 19 18 19 18 19 20 22 23 24 25 25 27 28 28 28 28 31 37 38 41 43 42 44 45 46 47 48
4 3 0 3 5 3 7 7 8 7 7 7 10 7 11 14 17 18 17 16 16 18 18 20 20 22 23 25 27 28 27 27 28 28 32 36 35 36 41 41 42 44 48 49
5 4 2 3 2 3 6 5 5 5 5 6 6 9 10 12 14 15 15 14 14 15 15 16 18 21 21 22 24 27 28 27 27 28 28 31 34 34 35 37 41 38 43 46
6 4 4 2 2 4 3 3 1 2 4 6 8 8 8 9 11 14 14 11 11 13 13 13 14 14 17 19 20 22 26 26 28 28 29 30 31 33 34 37 40 40 32 35
6 4 3 2 3 3 4 3 4 3 4 5 4 7 7 10 11 11 11 9 10 11 13 14 12 12 11 11 16 21 23 26 25 27 28 28 30 31 33 35 37 38 40 40
5 4 5 3 3 2 1 3 2 4 3 5 4 6 8 9 11 10 9 9 11 10 11 14 13 12 10 9 10 12 17 22 26 26 27 28 28 30 32 34 35 36 36 38
7 4 5 3 3 2 2 2 3 2 2 2 4 5 5 7 9 9 9 9 10 8 9 11 11 12 13 13 11 11 13 17 23 26 27 29 30 31 32 34 35 37 37 39
7 5 5 4 2 2 2 2 1 2 5 3 2 6 5 6 7 8 7 7 10 7 9 10 11 12 13 13 13 12 11 12 17 22 27 29 32 30 33 34 35 37 38 41
10 6 4 4 4 5 5 5 2 1 2 4 2 6 4 4 5 7 10 12 11 11 11 11 11 11 13 14 14 14 14 15 14 17 22 27 29 33 34 34 36 36 39 39
9 9 7 7 5 4 5 6 5 4 3 4 5 3 4 2 4 7 9 10 11 13 14 14 14 13 14 15 16 16 18 19 18 16 17 21 25 29 33 37 39 38 39 40
10 10 9 8 5 6 7 8 8 7 7 4 6 4 5 2 4 5 7 8 10 12 13 14 15 16 17 18 18 18 20 20 20 19 18 20 23 26 30 34 36 39 41 42
13 10 8 9 10 10 10 11 11 10 10 10 9 5 3 4 3 5 7 6 8 11 12 14 15 16 18 19 18 20 20 20 20 20 21 23 25 25 27 29 33 37 39 41
14 11 9 10 8 8 10 14 14 12 12 8 8 7 5 4 5 7 6 6 8 11 12 14 15 17 18 18 20 21 22 22 21 21 23 25 26 27 28 29 31 33 36 39
15 13 10 10 8 8 10 7 11 13 11 11 6 6 5 5 5 5 6 7 9 11 12 14 16 17 17 19 21 22 22 23 23 24 25 25 25 27 28 30 31 32 34 36
17 14 11 10 12 13 11 11 8 10 12 11 11 8 7 6 5 6 6 7 9 10 12 14 16 16 18 20 21 22 23 24 26 26 27 27 27 27 28 30 30 32 33 35
18 16 13 11 10 12 11 8 8 6 9 11 10 10 9 7 8 9 7 8 9 11 12 14 16 16 18 20 22 23 24 26 27 28 30 30 30 29 30 29 29 31 33 34
20 16 16 14 14 14 15 10 7 6 9 10 10 10 9 9 9 9 8 9 10 11 13 15 17 18 18 21 22 24 26 28 29 30 32 32 32 33 30 30 31 32 32 33
21 19 17 16 14 16 16 13 12 11 8 7 8 8 7 7 7 8 9 9 10 12 14 16 18 19 20 22 24 26 28 29 30 32 33 33 34 34 33 33 32 31 31 31
21 21 18 18 16 13 13 14 11 9 7 6 7 8 8 8 9 9 9 10 11 12 14 17 19 20 22 24 26 28 29 30 31 33 34 35 35 35 35 34 33 31 30 30
23 23 20 17 19 19 16 16 14 11 10 9 9 9 9 9 9 9 10 10 11 13 15 17 19 21 24 26 27 28 30 31 33 34 36 37 37 37 36 34 32 31 30 30
24 25 23 20 17 17 18 16 16 14 12 12 11 11 10 9 10 10 10 11 12 13 16 18 20 22 24 27 28 29 31 32 34 35 37 38 38 38 37 33 31 30 29 29
27 24 24 20 20 18 17 18 17 16 15 14 12 11 11 11 11 11 11 12 13 15 17 19 21 23 25 27 28 30 31 33 35 37 38 39 39 38 36 34 31 29 29 29
Wind_Direction
101 124 117 98 162 204 222 236 259 275 289 294 290 291 296 297 296 293 290 287 283 278 274 269 266 262 262 258 257 258 250 237 231 231 232 232 232 233 234 234 234 234 234 234
128 113 144 258 133 270 263 240 282 278 293 277 268 295 299 306 304 299 293 289 285 281 275 271 267 264 260 258 255 256 255 245 233 232 232 235 235 235 235 234 235 235 235 236
174 178 225 251 42 296 277 230 283 280 285 278 248 295 305 310 312 310 305 296 290 282 275 271 269 263 261 257 255 255 255 253 240 234 232 234 236 236 235 234 235 237 237 237
157 206 260 222 358 295 235 277 294 286 292 280 295 281 309 312 316 314 313 309 296 286 276 271 269 267 262 256 253 253 253 254 248 239 238 233 235 237 237 236 236 238 239 239
203 166 325 353 284 295 270 285 275 278 284 304 309 304 301 318 322 318 317 311 307 297 283 273 269 267 263 258 252 252 252 252 252 246 238 238 239 238 239 238 238 239 241 240
188 177 294 275 290 274 294 299 282 272 284 314 310 313 316 324 319 318 315 313 312 311 296 277 273 271 266 261 255 250 251 250 250 249 243 241 243 241 241 241 242 242 241 240
195 197 220 326 344 317 356 336 324 327 329 307 321 337 307 320 329 329 323 314 319 320 312 296 287 276 272 268 257 248 249 248 249 248 246 245 244 244 242 244 245 246 246 239
206 218 227 290 317 311 339 13 313 295 328 321 356 336 319 317 323 332 334 330 330 342 336 327 312 294 280 271 260 251 247 247 247 248 248 246 247 246 245 246 247 248 262 231
206 217 216 252 295 327 314 343 304 318 308 326 341 338 328 319 317 323 327 330 343 347 352 358 350 340 307 296 273 258 250 246 248 247 249 249 249 248 248 248 250 252 252 247
225 208 216 228 257 316 13 331 336 331 344 327 345 349 329 328 325 321 321 319 320 330 344 353 357 355 354 326 313 275 260 250 249 250 250 250 251 252 250 252 254 256 257 255
211 215 221 227 253 237 268 322 347 327 326 324 332 326 338 340 337 320 306 313 325 325 332 345 352 356 357 355 345 320 281 264 255 253 254 254 254 255 255 256 257 259 258 260
214 215 212 218 238 262 270 271 280 306 294 311 333 312 336 348 355 2 355 332 333 325 328 331 335 342 347 351 351 339 335 301 271 263 257 258 257 260 258 259 260 260 263 263
209 226 215 246 275 251 253 250 250 256 307 287 333 308 303 341 9 15 18 13 15 8 352 338 328 326 330 335 337 335 336 326 303 281 268 262 263 261 261 262 262 263 265 266
215 225 223 223 238 230 249 229 232 240 280 283 281 288 256 285 6 2 7 13 13 10 9 6 357 350 341 335 331 331 327 326 320 303 295 277 272 268 266 265 264 265 266 266
221 227 236 248 259 259 263 251 235 232 250 272 289 281 220 255 322 340 353 359 3 4 6 6 4 2 355 348 343 333 328 323 318 311 305 297 288 282 274 270 267 266 266 266
225 232 233 260 261 269 263 260 258 253 246 251 265 300 240 263 299 332 337 346 354 355 356 357 357 356 353 352 352 348 343 335 326 317 310 302 301 295 287 281 274 271 270 268
217 226 233 248 245 262 284 252 248 249 250 251 252 252 247 275 301 310 325 332 339 342 345 346 347 347 348 353 351 348 345 342 337 333 322 312 303 296 292 288 285 280 275 273
215 221 231 240 254 263 260 264 243 238 245 241 240 230 244 269 299 312 315 319 329 335 338 341 341 343 347 346 345 345 346 344 342 337 332 324 315 304 298 293 289 286 281 278
216 220 232 234 242 265 268 255 249 230 249 236 235 236 243 261 291 304 306 316 324 329 334 336 337 340 342 344 344 343 343 343 340 338 335 329 323 315 306 298 293 288 286 283
217 221 228 238 238 246 255 244 235 236 265 241 233 234 242 253 277 281 295 309 317 324 330 335 336 336 339 340 341 340 339 339 337 335 334 331 325 320 314 306 298 293 291 286
219 228 224 234 246 259 253 234 223 245 268 243 231 232 241 263 270 269 289 304 311 320 327 332 333 334 333 334 336 336 336 335 333 332 330 329 326 322 316 311 305 301 296 290
217 219 228 233 242 258 238 225 227 252 268 246 226 234 243 249 262 273 287 299 308 316 323 328 330 331 331 332 333 333 332 331 331 330 329 328 326 323 318 313 308 303 299 296
225 225 228 229 239 245 239 232 236 241 239 239 231 238 249 260 270 272 282 292 303 312 318 324 327 328 330 330 330 330 329 330 330 329 329 328 326 323 320 315 309 304 301 298
228 222 232 233 242 244 246 228 231 238 243 242 248 251 256 263 267 274 282 290 301 310 317 322 326 327 329 330 329 329 329 329 329 328 328 327 325 323 320 316 310 305 302 299
226 220 229 237 244 232 238 231 232 236 243 244 246 255 258 262 267 276 281 290 299 307 315 320 323 326 328 329 329 329 328 329 329 328 328 327 325 323 320 316 310 305 302 300
226 227 227 238 233 233 235 232 235 235 239 242 246 256 260 263 271 277 282 289 297 305 311 316 320 323 326 328 328 329 329 328 328 328 328 327 326 324 322 317 312 307 302 301